Voltar ao catálogo

STARLINK-11088

AtivoComunicaçõesVLEO
NORAD 59709·PAYLOAD·🇺🇸 United States

Lançado May 10, 2024 de Vandenberg Space Force Base

Loading…

Próximas Passagens (próximas 24 horas)

TLE

AtualizadoSource: CelesTrak SupGP

Época: Sep 15, 2026, 02:45 UTC

1 59709C 24088B   26258.11506944  .00068511  00000+0  56420-3 0  2583
2 59709  53.1565 112.7814 0001146  89.2404 121.7233 15.69681387    14

Acompanhe STARLINK-11088 em tempo real com AllMySat

Download on the App Store